Location: Lake Sonoma
(38.7200°N, 123.0564°W)
Time: 14:15:13
(UTC-08:00)

Amateur Radio Satellites - All Passes

Search period start: 10 December 2016 13:45
Search period end: 11 December 2016 13:45
Location: Lake Sonoma, 38.7200°N, 123.0564°W

Satellite Date Start Highest point End Downlink Frequencies (MHz)
Time Altitude Azimuth
Gurwin Techsat 1B 10 Dec 13:49:23 13:54:34 53° 260° (W) 13:59:47 435.225
ITAMSAT 1 10 Dec 13:52:39 13:57:25 37° 69° (ENE) 14:02:12 435.822/435.867
M-CUBED/EXP-1 PRIME 10 Dec 14:00:15 14:02:58 16° 96° (E) 14:05:37 437.505
UKube-1 10 Dec 14:04:36 14:07:36 19° 294° (WNW) 14:10:37 .
DX 1 10 Dec 14:08:21 14:10:30 13° 296° (WNW) 14:12:38 434.975-435.025
SWISSCUBE 10 Dec 14:16:16 14:20:35 34° 98° (E) 14:24:53 437.505
BEESAT 10 Dec 14:19:47 14:24:04 33° 97° (E) 14:28:19 436.000
O/OREOS (USA 219) 10 Dec 14:39:34 14:43:51 42° 106° (ESE) 14:48:09 437.305
MOZHAYETS 4 10 Dec 14:42:13 14:44:23 13° 91° (E) 14:46:33
ITUPSAT 1 10 Dec 14:50:35 14:55:20 69° 103° (ESE) 15:00:04 437.325
ISS 10 Dec 14:58:15 15:01:27 48° 325° (NW) 15:04:39 145.825
TISAT 1 10 Dec 15:11:19 15:12:55 12° 296° (WNW) 15:14:31 437.305
AUBIESAT-1 10 Dec 15:16:25 15:20:57 89° 109° (ESE) 15:25:13 437.475
AO-7 10 Dec 15:18:28 15:26:42 68° 255° (WSW) 15:35:02 29.400- 29.500
AIST 2 10 Dec 15:19:23 15:23:15 34° 52° (NE) 15:27:07 435.215
ITAMSAT 1 10 Dec 15:32:44 15:36:57 25° 265° (W) 15:41:11 435.822/435.867
M-CUBED/EXP-1 PRIME 10 Dec 15:33:14 15:37:42 49° 292° (WNW) 15:41:55 437.505
SWISSCUBE 10 Dec 15:54:25 15:58:10 24° 293° (WNW) 16:01:55 437.505
RS-15 10 Dec 15:56:34 16:09:02 84° 59° (ENE) 16:21:01 29.354- 29.394
BEESAT 10 Dec 15:57:51 16:01:40 24° 293° (WNW) 16:05:27 436.000
STARS 10 Dec 16:02:34 16:05:30 17° 93° (E) 16:08:26 437.465
CUTE-I 10 Dec 16:07:34 16:09:01 11° 59° (ENE) 16:10:28 437.470
KKS-1 10 Dec 16:09:59 16:14:20 47° 100° (E) 16:18:37 437.445
NOAA 15 10 Dec 16:12:14 16:14:43 14° 61° (ENE) 16:17:13 137.62
BRITE-PL 10 Dec 16:17:11 16:21:24 49° 73° (ENE) 16:25:58 437.365/2234.400
MOZHAYETS 4 10 Dec 16:17:24 16:21:51 54° 286° (WNW) 16:26:18
O/OREOS (USA 219) 10 Dec 16:20:15 16:23:26 18° 302° (WNW) 16:26:38 437.305
HORYU 2 10 Dec 16:20:33 16:24:46 42° 71° (ENE) 16:29:00 437.375
Cosmos 2491 10 Dec 16:23:22 16:30:10 24° 68° (ENE) 16:36:54 435.465 / 435.565
ITUPSAT 1 10 Dec 16:30:32 16:32:33 13° 298° (WNW) 16:34:34 437.325
Cubesat XI-IV 10 Dec 16:32:37 16:36:22 20° 64° (ENE) 16:40:06 437.490
CUBESAT XI-V 10 Dec 16:34:12 16:38:21 31° 96° (E) 16:42:29 437.345
ISS 10 Dec 16:37:03 16:38:35 13° 344° (NNW) 16:40:06 145.825
DOVE 4 10 Dec 16:49:11 16:52:47 20° 65° (ENE) 16:56:29 437.250
YUBILEINY 10 Dec 16:51:32 16:55:06 13° 75° (ENE) 16:58:40 435.215
NOAA 18 10 Dec 16:57:35 17:01:46 23° 64° (ENE) 17:05:59 137.9125
AIST 2 10 Dec 16:58:17 17:01:32 22° 249° (WSW) 17:04:46 435.215
GOMX 1 10 Dec 17:03:56 17:08:33 64° 74° (ENE) 17:13:33 467.674
AO-7 10 Dec 17:19:47 17:20:50 10° 273° (W) 17:21:54 29.400- 29.500
CINEMA 3 10 Dec 17:30:49 17:33:18 14° 63° (ENE) 17:35:47 145.822/145.860
STARS 10 Dec 17:37:53 17:41:59 39° 289° (WNW) 17:46:04 437.465
LilacSat-2 10 Dec 17:38:27 17:42:17 86° 77° (ENE) 17:46:08 437.200
CUTE-I 10 Dec 17:42:51 17:48:13 86° 75° (ENE) 17:53:37 437.470
KKS-1 10 Dec 17:47:47 17:50:28 16° 296° (WNW) 17:53:09 437.445
NOAA 15 10 Dec 17:48:36 17:53:49 76° 257° (WSW) 17:59:05 137.62
HO-68 10 Dec 17:55:44 18:01:36 28° 61° (ENE) 18:07:29 435.675
BRITE-PL 10 Dec 17:57:57 18:00:18 14° 271° (W) 18:02:43 437.365/2234.400
HORYU 2 10 Dec 17:58:37 18:01:28 17° 267° (W) 18:04:20 437.375
CANX-2 10 Dec 18:03:21 18:05:58 16° 66° (ENE) 18:08:34 2200.000
Cubesat XI-IV 10 Dec 18:10:45 18:15:59 53° 259° (W) 18:21:15 437.490
RS-15 10 Dec 18:10:55 18:19:58 25° 260° (W) 18:28:49 29.354- 29.394
CUBESAT XI-V 10 Dec 18:11:47 18:15:34 25° 292° (WNW) 18:19:22 437.345
SEEDS 10 Dec 18:18:14 18:20:17 14° 66° (ENE) 18:22:21 437.485
Cosmos 2491 10 Dec 18:19:05 18:27:42 69° 267° (W) 18:36:19 435.465 / 435.565
DOVE 4 10 Dec 18:25:21 18:30:02 46° 262° (W) 18:34:59 437.250
Cosmos 2504 10 Dec 18:26:42 18:33:51 32° 83° (E) 18:41:16 435.465 / 435.565
SO-50 10 Dec 18:28:33 18:33:09 48° 116° (ESE) 18:37:41 436.795
NOAA 18 10 Dec 18:36:43 18:42:04 49° 260° (W) 18:47:27 137.9125
YUBILEINY 10 Dec 18:41:38 18:50:19 78° 94° (E) 18:59:05 435.215
CUSAT 1 10 Dec 18:43:14 18:45:58 16° 76° (ENE) 18:49:06 437.405
GOMX 1 10 Dec 18:45:12 18:47:10 12° 272° (W) 18:49:12 467.674
AIST 1 10 Dec 18:46:50 18:50:46 36° 91° (E) 18:54:46
CUBEBUG 2 10 Dec 18:48:38 18:52:08 21° 67° (ENE) 18:55:37 437.445
PCSat 10 Dec 18:49:55 18:54:37 29° 52° (NE) 18:59:16 145.827
STRAND 1 10 Dec 19:03:39 19:08:23 37° 98° (E) 19:13:04 437.568
CINEMA 3 10 Dec 19:04:50 19:09:46 70° 259° (WSW) 19:14:49 145.822/145.860
AAUSAT CUBESAT 2 10 Dec 19:16:18 19:19:53 30° 71° (ENE) 19:23:30 437.432
CUTE 1.7 + AOD 2 10 Dec 19:18:02 19:22:14 81° 258° (WSW) 19:26:27 437.475
UWE-3 10 Dec 19:19:20 19:23:14 27° 70° (ENE) 19:27:05 435.000/436.395/437.385
CUTE-I 10 Dec 19:28:01 19:28:53 10° 271° (W) 19:29:45 437.470
CANX-2 10 Dec 19:37:31 19:41:28 39° 262° (W) 19:45:26 2200.000
HO-68 10 Dec 19:41:55 19:48:53 55° 259° (WSW) 19:55:56 435.675
ZACube-1 10 Dec 19:48:04 19:52:06 33° 71° (ENE) 19:56:06 437.345
ISS 10 Dec 19:51:21 19:53:51 19° 25° (NNE) 19:56:20 145.825
COMPASS 1 10 Dec 19:51:28 19:55:34 75° 258° (WSW) 19:59:43 437.405
SEEDS 10 Dec 19:51:32 19:55:33 47° 261° (W) 19:59:35 437.485
FUNcube-1 10 Dec 19:52:35 19:56:39 34° 71° (ENE) 20:00:38 145.935
SO-50 10 Dec 20:10:10 20:13:51 22° 313° (NW) 20:17:29 436.795
Oscar 11 10 Dec 20:15:59 20:20:13 58° 75° (ENE) 20:24:28 145.826/435.025
PRISM 10 Dec 20:16:52 20:18:15 11° 92° (E) 20:19:37 437.425
Cosmos 2504 10 Dec 20:18:29 20:26:43 54° 283° (WNW) 20:35:24 435.465 / 435.565
DANDE 10 Dec 20:21:08 20:24:07 34° 80° (E) 20:27:50 436.750
Cosmos 2491 10 Dec 20:21:16 20:22:46 11° 286° (WNW) 20:24:15 435.465 / 435.565
CUSAT 1 10 Dec 20:23:37 20:27:45 46° 263° (W) 20:33:06 437.405
CUBEBUG 2 10 Dec 20:24:03 20:28:29 39° 263° (W) 20:32:52 437.445
AIST 1 10 Dec 20:25:38 20:28:29 17° 288° (WNW) 20:31:23
HUMSAT D 10 Dec 20:30:05 20:32:29 15° 66° (ENE) 20:34:54 437.325/437.525
PCSat 10 Dec 20:33:03 20:38:05 40° 249° (WSW) 20:43:05 145.827
YUBILEINY 10 Dec 20:41:51 20:48:04 21° 294° (WNW) 20:54:22 435.215
STRAND 1 10 Dec 20:43:15 20:47:19 24° 294° (WNW) 20:51:22 437.568
AAUSAT CUBESAT 2 10 Dec 20:52:28 20:55:23 19° 266° (W) 20:58:20 437.432
PHONESAT 2.4 10 Dec 20:52:29 20:52:54 10° 146° (SSE) 20:53:18 2401.200-2431.200
UWE-3 10 Dec 20:55:38 20:59:35 27° 264° (W) 21:03:30 435.000/436.395/437.385
DELFI C3 10 Dec 21:02:17 21:06:10 69° 77° (ENE) 21:10:05 145.870
TIGRISAT 10 Dec 21:19:53 21:21:43 12° 91° (E) 21:23:32 435.000
ANTELSAT 10 Dec 21:22:21 21:24:42 14° 92° (E) 21:27:02 437.575/2403.000
ZACube-1 10 Dec 21:24:57 21:28:24 21° 266° (W) 21:31:49 437.345
ISS 10 Dec 21:27:20 21:30:36 62° 221° (SW) 21:33:51 145.825
FUNcube-1 10 Dec 21:29:33 21:32:54 20° 266° (W) 21:36:15 145.935
ESTCUBE 1 10 Dec 21:36:09 21:38:03 13° 63° (ENE) 21:39:57 437.505/2401.250
PRISM 10 Dec 21:49:45 21:53:49 53° 287° (WNW) 21:57:52 437.425
Oscar 11 10 Dec 21:55:34 21:56:42 11° 270° (W) 21:57:48 145.826/435.025
HUMSAT D 10 Dec 22:03:46 22:07:45 42° 261° (W) 22:11:42 437.325/437.525
PHONESAT 2.4 10 Dec 22:25:02 22:27:39 55° 160° (SSE) 22:30:15 2401.200-2431.200
UNISAT 6 10 Dec 22:26:08 22:30:30 82° 101° (E) 22:34:46 437.425
AISAT 10 Dec 22:53:18 22:57:21 36° 71° (ENE) 23:01:26 437.250
TIGRISAT 10 Dec 22:54:31 22:58:43 50° 286° (WNW) 23:02:50 435.000
ANTELSAT 10 Dec 22:57:31 23:01:39 44° 288° (WNW) 23:05:42 437.575/2403.000
Cosmos 2499 10 Dec 23:02:48 23:09:52 29° 83° (E) 23:17:05 435.465 / 435.565
CUBEBUG 1 10 Dec 23:04:15 23:08:35 69° 76° (ENE) 23:12:58 437.445
JAS-2 10 Dec 23:04:55 23:09:50 38° 99° (E) 23:15:05 435.910
ESTCUBE 1 10 Dec 23:09:53 23:14:18 61° 259° (W) 23:18:45 437.505/2401.250
UKube-1 10 Dec 23:21:10 23:24:46 27° 69° (ENE) 23:28:24 .
GONETS M04 10 Dec 23:21:30 23:29:00 34° 85° (E) 23:36:29
SPROUT 10 Dec 23:21:33 23:25:38 45° 73° (ENE) 23:29:46 437.525
DX 1 10 Dec 23:24:33 23:28:36 39° 71° (ENE) 23:32:41 434.975-435.025
NANOSAT C BR1 10 Dec 23:28:11 23:32:05 36° 98° (E) 23:35:56 145.865
VELOX 1 10 Dec 23:29:23 23:33:48 87° 75° (ENE) 23:38:16 145.980
50 SAT 10 Dec 23:35:56 23:39:26 90° 12° (NNE) 23:42:58 437.505
QB50P2 10 Dec 23:39:21 23:43:31 58° 100° (E) 23:47:39 145.880/145.840
POLYITAN 1 10 Dec 23:39:44 23:43:53 54° 100° (E) 23:47:59 437.675
DUCHIFAT 1 10 Dec 23:47:17 23:51:25 56° 100° (E) 23:55:30 145.980
QB50P1 10 Dec 23:50:52 23:55:06 74° 101° (E) 23:59:17 145.935-145.965
PHONESAT 2.4 11 Dec 00:00:11 00:02:49 55° 357° (N) 00:05:25 2401.200-2431.200
AO-85 11 Dec 00:11:53 00:16:32 40° 116° (ESE) 00:20:53 145.980
POPSAT HIP 1 11 Dec 00:13:02 00:17:13 61° 285° (WNW) 00:21:21 437.405
BUGSAT 1 11 Dec 00:21:29 00:25:33 49° 100° (E) 00:29:31 437.445
TISAT 1 11 Dec 00:23:46 00:27:37 35° 71° (ENE) 00:31:30 437.305
AISAT 11 Dec 00:30:45 00:33:54 19° 266° (W) 00:37:04 437.250
M-CUBED/EXP-1 PRIME 11 Dec 00:44:46 00:47:31 17° 59° (ENE) 00:50:22 437.505
JAS-2 11 Dec 00:50:34 00:54:46 25° 293° (WNW) 00:59:13 435.910
O/OREOS (USA 219) 11 Dec 00:50:38 00:55:06 65° 67° (ENE) 00:59:31 437.305
Cosmos 2499 11 Dec 00:53:50 01:02:21 60° 281° (WNW) 01:11:09 435.465 / 435.565
UKube-1 11 Dec 00:57:12 01:00:44 24° 264° (W) 01:04:17 .
SPROUT 11 Dec 00:59:24 01:01:46 14° 268° (W) 01:04:09 437.525
DX 1 11 Dec 01:02:06 01:04:55 17° 266° (W) 01:07:45 434.975-435.025
NANOSAT C BR1 11 Dec 01:04:40 01:07:31 18° 293° (WNW) 01:10:21 145.865
GONETS M04 11 Dec 01:17:06 01:25:27 49° 283° (WNW) 01:33:49
QB50P2 11 Dec 01:17:13 01:18:47 12° 296° (WNW) 01:20:21 145.880/145.840
POLYITAN 1 11 Dec 01:17:24 01:19:10 12° 296° (WNW) 01:20:57 437.675
SWISSCUBE 11 Dec 01:21:22 01:25:39 34° 70° (ENE) 01:29:57 437.505
BEESAT 11 Dec 01:24:49 01:29:05 33° 70° (ENE) 01:33:20 436.000
DUCHIFAT 1 11 Dec 01:24:57 01:26:35 12° 296° (WNW) 01:28:13 145.980
Oscar 19 11 Dec 01:25:39 01:30:46 55° 100° (E) 01:35:51 437.125/150
PHONESAT 2.4 11 Dec 01:35:26 01:38:04 83° 8° (N) 01:40:41 2401.200-2431.200
MOZHAYETS 4 11 Dec 01:43:49 01:45:28 12° 63° (ENE) 01:47:07
AO-85 11 Dec 01:53:06 01:57:03 24° 310° (NW) 02:00:47 145.980
ITUPSAT 1 11 Dec 01:55:45 02:00:30 69° 74° (ENE) 02:05:15 437.325
BUGSAT 1 11 Dec 01:58:31 02:00:26 13° 296° (WNW) 02:02:20 437.445
AUBIESAT-1 11 Dec 02:00:02 02:04:17 86° 68° (ENE) 02:08:48 437.475
TISAT 1 11 Dec 02:00:25 02:03:20 18° 266° (W) 02:06:16 437.305
Gurwin Techsat 1B 11 Dec 02:06:44 02:12:03 68° 102° (ESE) 02:17:20 435.225
ITAMSAT 1 11 Dec 02:08:16 02:10:56 14° 91° (E) 02:13:35 435.822/435.867
M-CUBED/EXP-1 PRIME 11 Dec 02:17:26 02:21:30 48° 256° (WSW) 02:25:53 437.505
O/OREOS (USA 219) 11 Dec 02:33:24 02:33:51 10° 263° (W) 02:34:18 437.305
BEESAT 3 11 Dec 02:54:08 02:57:18 24° 113° (ESE) 03:00:31 437.485
Cosmos 2499 11 Dec 02:55:21 02:57:31 11° 303° (WNW) 02:59:42 435.465 / 435.565
STARS 11 Dec 02:58:38 03:01:00 14° 64° (ENE) 03:03:22 437.465
SWISSCUBE 11 Dec 02:59:43 03:03:28 23° 265° (W) 03:07:14 437.505
SO-50 11 Dec 03:01:26 03:05:25 30° 50° (NE) 03:09:21 436.795
BEESAT 11 Dec 03:03:03 03:06:53 24° 265° (W) 03:10:42 436.000
Oscar 19 11 Dec 03:06:10 03:09:38 18° 296° (WNW) 03:13:04 437.125/150
KKS-1 11 Dec 03:06:35 03:10:42 37° 71° (ENE) 03:14:50 437.445
PHONESAT 2.4 11 Dec 03:10:56 03:13:00 21° 208° (SSW) 03:15:04 2401.200-2431.200
MOZHAYETS 4 11 Dec 03:17:28 03:22:02 68° 259° (W) 03:26:36
AO-7 11 Dec 03:21:37 03:29:35 46° 101° (E) 03:37:31 29.400- 29.500
BEESAT 2 11 Dec 03:35:17 03:38:45 31° 114° (ESE) 03:42:17 435.950
CUBESAT XI-V 11 Dec 03:36:25 03:40:12 26° 69° (ENE) 03:44:00 437.345
ITUPSAT 1 11 Dec 03:37:20 03:38:45 11° 269° (W) 03:40:11 437.325
ITAMSAT 1 11 Dec 03:45:41 03:50:48 64° 288° (WNW) 03:55:54 435.822/435.867
Gurwin Techsat 1B 11 Dec 03:48:24 03:51:24 15° 298° (WNW) 03:54:22 435.225
RS-15 11 Dec 04:15:18 04:18:29 11° 93° (E) 04:21:41 29.354- 29.394
BRITE-PL 11 Dec 04:22:56 04:27:17 23° 93° (E) 04:31:40 437.365/2234.400
BEESAT 3 11 Dec 04:31:31 04:34:50 26° 309° (NW) 04:38:11 437.485
STARS 11 Dec 04:32:33 04:36:53 52° 260° (W) 04:41:14 437.465
SO-50 11 Dec 04:41:57 04:45:48 28° 247° (WSW) 04:49:35 436.795
KKS-1 11 Dec 04:44:11 04:47:21 19° 266° (W) 04:50:32 437.445
YUBILEINY 11 Dec 04:53:49 05:01:49 36° 73° (ENE) 05:09:46 435.215
GOMX 1 11 Dec 05:07:22 05:11:50 25° 93° (E) 05:16:12 467.674
BEESAT 2 11 Dec 05:13:28 05:16:35 22° 311° (NW) 05:19:44 435.950
CUBESAT XI-V 11 Dec 05:13:31 05:17:27 28° 264° (W) 05:21:26 437.345
AO-7 11 Dec 05:14:36 05:22:10 40° 298° (WNW) 05:29:45 29.400- 29.500
Cosmos 2491 11 Dec 05:23:22 05:30:31 29° 83° (E) 05:37:38 435.465 / 435.565
HORYU 2 11 Dec 05:48:47 05:53:13 80° 286° (WNW) 05:57:38 437.375
BRITE-PL 11 Dec 06:00:32 06:05:53 48° 288° (WNW) 06:11:20 437.365/2234.400
CUTE-I 11 Dec 06:01:31 06:06:28 38° 98° (E) 06:11:22 437.470
NOAA 15 11 Dec 06:05:06 06:10:10 45° 99° (E) 06:15:13 137.62
Cosmos 2504 11 Dec 06:13:02 06:21:34 56° 78° (ENE) 06:29:29 435.465 / 435.565
RS-15 11 Dec 06:16:48 06:28:13 64° 113° (ESE) 06:40:13 29.354- 29.394
STRAND 1 11 Dec 06:18:04 06:22:58 47° 71° (ENE) 06:27:52 437.568
DOVE 4 11 Dec 06:25:27 06:30:38 59° 100° (E) 06:35:33 437.250
Cubesat XI-IV 11 Dec 06:29:10 06:34:30 69° 102° (ESE) 06:39:47 437.490
AIST 1 11 Dec 06:32:04 06:36:29 79° 264° (W) 06:40:51
GOMX 1 11 Dec 06:44:50 06:49:59 41° 289° (WNW) 06:55:01 467.674
LilacSat-2 11 Dec 06:47:15 06:50:54 49° 285° (WNW) 06:54:32 437.200
YUBILEINY 11 Dec 06:50:26 06:58:44 47° 272° (W) 07:07:01 435.215
AIST 2 11 Dec 06:53:15 06:57:20 75° 301° (WNW) 07:01:31 435.215
NOAA 18 11 Dec 06:59:53 07:05:27 80° 104° (ESE) 07:10:56 137.9125
CINEMA 3 11 Dec 07:01:41 07:05:50 31° 95° (E) 07:09:48 145.822/145.860
CUTE 1.7 + AOD 2 11 Dec 07:05:01 07:08:01 19° 94° (E) 07:11:01 437.475
HO-68 11 Dec 07:11:17 07:17:36 32° 96° (E) 07:23:51 435.675
Cosmos 2491 11 Dec 07:18:12 07:26:46 57° 282° (WNW) 07:35:22 435.465 / 435.565
CANX-2 11 Dec 07:23:34 07:27:29 36° 98° (E) 07:31:23 2200.000
COMPASS 1 11 Dec 07:36:16 07:39:14 19° 94° (E) 07:42:11 437.405
SEEDS 11 Dec 07:36:42 07:40:22 29° 96° (E) 07:44:01 437.485
CUTE-I 11 Dec 07:41:58 07:46:18 26° 294° (WNW) 07:50:36 437.470
NOAA 15 11 Dec 07:45:38 07:49:37 22° 295° (WNW) 07:53:36 137.62
STRAND 1 11 Dec 07:58:46 08:02:21 19° 267° (W) 08:05:56 437.568
DOVE 4 11 Dec 08:04:27 08:07:43 17° 297° (WNW) 08:10:55 437.250
Oscar 11 11 Dec 08:06:35 08:08:09 12° 91° (E) 08:09:43 145.826/435.025
Cosmos 2504 11 Dec 08:07:18 08:14:20 29° 277° (W) 08:21:03 435.465 / 435.565
Cubesat XI-IV 11 Dec 08:10:59 08:13:57 15° 299° (WNW) 08:16:54 437.490
CUBEBUG 2 11 Dec 08:16:13 08:20:23 47° 99° (E) 08:24:25 437.445
TIGRISAT 11 Dec 08:17:58 08:19:31 12° 63° (ENE) 08:21:03 435.000
ANTELSAT 11 Dec 08:20:23 08:22:31 13° 64° (ENE) 08:24:39 437.575/2403.000
RS-15 11 Dec 08:30:18 08:41:23 43° 317° (NW) 08:52:56 29.354- 29.394
AAUSAT CUBESAT 2 11 Dec 08:34:19 08:38:29 70° 101° (ESE) 08:42:38 437.432
PRISM 11 Dec 08:37:16 08:41:20 88° 71° (ENE) 08:45:27 437.425
CINEMA 3 11 Dec 08:39:04 08:42:47 24° 293° (WNW) 08:46:20 145.822/145.860
CUTE 1.7 + AOD 2 11 Dec 08:40:07 08:43:54 33° 289° (WNW) 08:47:42 437.475
NOAA 18 11 Dec 08:42:38 08:45:21 14° 301° (WNW) 08:48:05 137.9125
AO-85 11 Dec 08:45:17 08:48:19 21° 48° (NE) 08:51:18 145.980
UWE-3 11 Dec 08:45:57 08:50:10 67° 100° (E) 08:54:17 435.000/436.395/437.385
HO-68 11 Dec 08:58:37 09:05:25 47° 293° (WNW) 09:12:13 435.675
CANX-2 11 Dec 09:00:11 09:03:03 18° 293° (WNW) 09:05:55 2200.000
COMPASS 1 11 Dec 09:11:06 09:14:49 32° 289° (WNW) 09:18:33 437.405
SEEDS 11 Dec 09:12:40 09:15:53 22° 291° (WNW) 09:19:05 437.485
ZACube-1 11 Dec 09:13:23 09:17:36 83° 105° (ESE) 09:21:43 437.345
FUNcube-1 11 Dec 09:17:33 09:21:45 85° 103° (ESE) 09:25:52 145.935
JAS-2 11 Dec 09:18:26 09:21:40 15° 63° (ENE) 09:24:43 435.910
UNISAT 6 11 Dec 09:22:56 09:27:31 60° 75° (ENE) 09:32:04 437.425
CUSAT 1 11 Dec 09:27:39 09:29:50 20° 283° (WNW) 09:31:52 437.405
DANDE 11 Dec 09:28:57 09:33:01 56° 98° (E) 09:36:10 436.750
PCSat 11 Dec 09:30:19 09:35:02 32° 109° (ESE) 09:39:47 145.827
GONETS M04 11 Dec 09:34:19 09:38:49 15° 61° (ENE) 09:43:19
Oscar 11 11 Dec 09:40:23 09:44:35 54° 286° (WNW) 09:48:47 145.826/435.025
JUGNU 11 Dec 09:44:22 09:46:04 11° 175° (S) 09:47:47 437.505
HUMSAT D 11 Dec 09:48:20 09:51:58 30° 97° (E) 09:55:34 437.325/437.525
TIGRISAT 11 Dec 09:50:56 09:55:35 73° 258° (WSW) 10:00:13 435.000
ANTELSAT 11 Dec 09:54:04 09:58:41 63° 258° (WSW) 10:03:16 437.575/2403.000
CUBEBUG 2 11 Dec 09:54:19 09:56:33 14° 295° (WNW) 09:58:44 437.445
DELFI C3 11 Dec 10:15:23 10:19:19 58° 285° (WNW) 10:23:14 145.870
NANOSAT C BR1 11 Dec 10:19:11 10:22:34 23° 69° (ENE) 10:25:57 145.865
AO-85 11 Dec 10:25:17 10:28:45 31° 246° (WSW) 10:32:11 145.980
UWE-3 11 Dec 10:25:47 10:26:00 10° 297° (WNW) 10:26:13 435.000/436.395/437.385
QB50P2 11 Dec 10:30:27 10:34:21 36° 72° (ENE) 10:38:17 145.880/145.840
POLYITAN 1 11 Dec 10:30:51 10:34:44 34° 71° (ENE) 10:38:36 437.675
DUCHIFAT 1 11 Dec 10:37:38 10:41:28 34° 71° (ENE) 10:45:20 145.980
QB50P1 11 Dec 10:41:37 10:45:41 45° 73° (ENE) 10:49:47 145.935-145.965
Cosmos 2499 11 Dec 10:47:32 10:55:39 49° 76° (ENE) 11:03:07 435.465 / 435.565
RS-15 11 Dec 10:50:20 10:58:38 20° 350° (N) 11:07:02 29.354- 29.394
CUBEBUG 1 11 Dec 10:55:39 10:58:01 14° 92° (E) 11:00:24 437.445
JAS-2 11 Dec 10:59:58 11:06:16 75° 258° (WSW) 11:11:52 435.910
UNISAT 6 11 Dec 11:02:37 11:04:33 12° 269° (W) 11:06:29 437.425
POPSAT HIP 1 11 Dec 11:03:33 11:07:49 80° 77° (ENE) 11:12:08 437.405
ESTCUBE 1 11 Dec 11:03:50 11:07:49 30° 96° (E) 11:11:47 437.505/2401.250
BUGSAT 1 11 Dec 11:09:45 11:13:26 29° 70° (ENE) 11:17:08 437.445
BEESAT 3 11 Dec 11:12:58 11:14:43 12° 44° (NE) 11:16:28 437.485
PCSat 11 Dec 11:13:26 11:18:20 34° 306° (NW) 11:23:17 145.827
VELOX 1 11 Dec 11:21:42 11:24:48 18° 94° (E) 11:27:52 145.980
HUMSAT D 11 Dec 11:24:27 11:27:22 19° 292° (WNW) 11:30:16 437.325/437.525
GONETS M04 11 Dec 11:28:22 11:37:08 79° 82° (E) 11:45:54
JUGNU 11 Dec 11:32:37 11:34:10 11° 186° (S) 11:35:44 437.505
Gurwin Techsat 1B 11 Dec 11:50:40 11:52:36 12° 60° (ENE) 11:54:31 435.225
NANOSAT C BR1 11 Dec 11:54:29 11:58:09 27° 264° (W) 12:01:49 145.865
BEESAT 2 11 Dec 11:54:46 11:57:13 15° 46° (NE) 11:59:39 435.950
QB50P2 11 Dec 12:07:20 12:10:15 18° 266° (W) 12:13:11 145.880/145.840
POLYITAN 1 11 Dec 12:07:32 12:10:34 19° 266° (W) 12:13:38 437.675
DUCHIFAT 1 11 Dec 12:14:14 12:17:13 18° 266° (W) 12:20:13 145.980
QB50P1 11 Dec 12:19:21 12:21:40 14° 268° (W) 12:23:59 145.935-145.965
AISAT 11 Dec 12:20:28 12:24:58 89° 109° (ESE) 12:29:25 437.250
CUBEBUG 1 11 Dec 12:30:16 12:34:33 48° 287° (WNW) 12:38:47 437.445
AO-7 11 Dec 12:33:29 12:36:01 12° 45° (NE) 12:38:33 29.400- 29.500
50 SAT 11 Dec 12:36:17 12:39:49 63° 284° (WNW) 12:43:21 437.505
ESTCUBE 1 11 Dec 12:40:50 12:44:28 24° 292° (WNW) 12:48:06 437.505/2401.250
Oscar 19 11 Dec 12:41:05 12:46:09 69° 74° (ENE) 12:51:18 437.125/150
Cosmos 2499 11 Dec 12:41:15 12:48:21 32° 276° (W) 12:55:01 435.465 / 435.565
SPROUT 11 Dec 12:44:09 12:48:27 77° 284° (WNW) 12:52:41 437.525
UKube-1 11 Dec 12:44:30 12:48:48 58° 101° (E) 12:53:03 .
BUGSAT 1 11 Dec 12:45:31 12:48:47 21° 265° (W) 12:52:04 437.445
BEESAT 3 11 Dec 12:48:49 12:52:48 70° 241° (WSW) 12:56:44 437.485
DX 1 11 Dec 12:49:36 12:54:01 89° 284° (WNW) 12:58:24 434.975-435.025
VELOX 1 11 Dec 12:57:13 13:01:21 38° 289° (WNW) 13:05:29 145.980
RS-15 11 Dec 13:07:39 13:17:27 26° 26° (NNE) 13:27:06 29.354- 29.394
SRMSAT 11 Dec 13:22:49 13:24:46 12° 182° (S) 13:26:43 437.500
ITAMSAT 1 11 Dec 13:24:34 13:28:21 21° 64° (ENE) 13:32:08 435.822/435.867
Gurwin Techsat 1B 11 Dec 13:26:26 13:31:45 87° 256° (WSW) 13:37:06 435.225
GONETS M04 11 Dec 13:27:08 13:32:53 20° 281° (W) 13:38:38
BEESAT 2 11 Dec 13:31:23 13:35:19 53° 243° (WSW) 13:39:13 435.950
